Regional Weather Roundup
Issued by NWS Upton, NY

Current Version | Previous Version | Text Only | Print | Product List | Glossary On
Versions: 1 2 3 4 5 6 7 8 9 10 11 12 13 14 15 16 17 18 19 20 21 22 23 24 25 26 27 28 29 30 31 32 33 34 35 36 37 38 39 40 41 42 43 44 45 46 47 48 49 50
729
ASUS41 KOKX 212318
RWROKX

REGIONAL WEATHER ROUNDUP
NATIONAL WEATHER SERVICE NEW YORK NY
700 PM EDT THU MAY 21 2015

NOTE: "FAIR" INDICATES FEW OR NO CLOUDS BELOW 12,000 FEET WITH NO
SIGNIFICANT WEATHER AND/OR OBSTRUCTIONS TO VISIBILITY.

NYZ071-072-176-178-NJZ106-104-220000-
NEW YORK CITY METRO AREA


CITY           SKY/WX    TMP DP  RH WIND       PRES   REMARKS
CENTRAL PARK   CLOUDY    58  46  64 VRB3      29.94F
LAGUARDIA APRT CLOUDY    56  45  66 S14       29.92S
KENNEDY INTL   CLOUDY    54  46  74 S12       29.95S
NEWARK/LIBERTY CLOUDY    56  47  71 S9        29.93R
BRNX BOT. GARD   N/A     55  45  67 W1        29.91S
TETERBORO      CLOUDY    59  45  59 S12       29.91S
$$

NYZ177-179-078>081-220000-
LONG ISLAND NEW YORK

CITY           SKY/WX    TMP DP  RH WIND       PRES   REMARKS
FARMINGDALE    CLOUDY    53  45  74 S12       29.94S
ISLIP          LGT RAIN  52  45  77 S12       29.92S
SHIRLEY        LGT RAIN  52  44  74 S7        29.94S
WESTHAMPTON    LGT RAIN  50  45  83 S7        29.95R
MONTAUK POINT    N/A     54  43  66 SW9       29.95R
$$

NYZ052-065-067-220000-
HUDSON VALLEY

CITY           SKY/WX    TMP DP  RH WIND       PRES   REMARKS
WHITE PLAINS   PTSUNNY   55  44  66 S8        29.90S
NEWBURGH       PTSUNNY   61  39  44 SW12      29.88S
MONTGOMERY     CLOUDY    61  38  42 SW12      29.87R
POUGHKEEPSIE   CLOUDY    63  37  38 S6        29.86R
ALBANY         CLOUDY    63  36  36 S8        29.85S
$$

NJZ001-105-106-008-010-013-015-019>022-104-220000-
NEW JERSEY

CITY           SKY/WX    TMP DP  RH WIND       PRES   REMARKS
NEWARK/LIBERTY CLOUDY    56  47  71 S9        29.93R
TETERBORO      CLOUDY    59  45  59 S12       29.91S
CALDWELL       CLOUDY    57  41  55 VRB7      29.91S
MORRISTOWN     CLOUDY    61  45  55 SW9       29.92S
SOMERVILLE     CLOUDY    56  43  61 VRB5      29.90S
SUSSEX         CLOUDY    59  39  47 S5        29.90S
ANDOVER          N/A     57  40  52 SW6       29.90S
TRENTON        LGT RAIN  51  49  92 CALM      29.92S FOG
MILLVILLE      LGT RAIN  52  50  93 NE5       29.92S FOG
ATLANTIC CITY  LGT RAIN  51  48  89 E3        29.93R FOG
WRIGHTSTOWN    CLOUDY    51  50  95 SE2       29.91S
TOMS RIVER     CLOUDY    52  48  87 SE5       29.93F
BELMAR         CLOUDY    52  45  76 SE6       29.94S
$$

PAZ047>061-062-071-220000-
EASTERN PENNSYLVANIA

CITY           SKY/WX    TMP DP  RH WIND       PRES   REMARKS
PHILADELPHIA   CLOUDY    52  46  80 VRB3      29.93F
ALLENTOWN      CLOUDY    57  40  52 S9        29.91R
SCRANTON       CLOUDY    57  38  48 W5        29.89S
$$

CTZ002-004>006-009-010-012-RIZ004-006-007-MAZ004-011-015-220000-
SOUTHERN NEW ENGLAND
 IN CT

CITY           SKY/WX    TMP DP  RH WIND       PRES   REMARKS
BRADLEY INTL   PTSUNNY   64  36  35 SW13      29.85S
HARTFORD       CLOUDY    61  37  41 S12       29.87R
DANBURY        CLOUDY    58  38  47 S7        29.89F
WTRBRY/OXFORD  PTSUNNY   57  36  44 S12G17    29.90S
BRIDGEPORT     CLOUDY    58  44  60 SW12      29.91S
MERIDEN        PTSUNNY   59  38  45 S12       29.90R
NEW HAVEN      PTSUNNY   56  42  59 SW8       29.91S
CHESTER        FAIR      55  37  50 SW8       29.91S
GROTON         CLOUDY    54  44  69 SW12      29.92R
WILLIMANTIC    PTSUNNY   60  37  42 S12       29.88R

 IN RI

CITY           SKY/WX    TMP DP  RH WIND       PRES   REMARKS
PROVIDENCE     PTSUNNY   60  35  39 SW16      29.89S
BLOCK ISLAND   CLOUDY    54  45  71 SW14      29.94R
WESTERLY       CLOUDY    55  42  61 SW8       29.93R

 IN MA

CITY           SKY/WX    TMP DP  RH WIND       PRES   REMARKS
BOSTON         MOSUNNY   63  40  42 S14       29.85S
WORCESTER      CLOUDY    61  32  33 SW9       29.86S
WESTFIELD      CLOUDY    64  31  28 W9        29.85S
PROVINCETOWN   CLEAR     57  41  54 SW13      29.90S
NANTUCKET      PTCLDY    54  46  74 S12       29.93S
$$

ANZ330-335-338-340-345-350-353-355-220000-
COASTAL MARINE OBSERVATIONS


STATION/POSITION TIME  SKY/WX   TEMP    WIND        PRES    VSBY  WAVE
                                AIR SEA DIR/SP/G                  HT/PER
                 (UTC)          (F)     (DEG/KT/KT) (MB)    (MI)  (FT/S)
NY HARB ENTRANCE 2250            51 56  200/  4/  6 1013.9          1/ 8
4S FIRE IS       2203               53                N/A           2/ 3
20S FIRE ISLAND  2250            50 55  260/  6/  6 1013.8          1/ 8
GREAT SOUTH BAY  2130            54 64  220/ 12/ 14   N/A
23SW MTP         2250            52 54  260/ 10/ 12 1013.9          1/ 8
HUDSON CANYON    NOT AVBL
KINGS POINT      2200            55 53  200/ 11/ 14 1012.8
CENTRAL LI SOUND 2245            54 52  210/ 12/ 14   N/A
EASTERN LI SOUND 2200            57     220/ 10/ 14   N/A
ROBBINS REEF     2200            54     180/ 13/ 14 1012.1
$$


>>>>>>>>>>>>>>>>>>>>>>>>>>>> KEY <<<<<<<<<<<<<<<<<<<<<<<<<<<
>                                                          <
>     SKY/WX - SKY CONDITION/PRESENT WEATHER               <
>     TMP    - TEMPERATURE IN FAHRENHEIT                   <
>     DP     - DEWPOINT IN FAHRENHEIT                      <
>     RH     - RELATIVE HUMIDITY IN PERCENT                <
>     WIND   - DIRECTION AND SPEED IN MPH                  <
>     PRES   - MEAN SEA LEVEL PRESSURE IN INCHES OF HG     <
>     WCI    - WIND CHILL INDEX                            <
>     VSB    - VISIBILITY IN MILES                         <
>     HX     - HEAT INDEX                                  <
>     TC     - TEMPERATURE IN CELSIUS                      <
>     VRB    - VARIABLE WIND DIRECTION                     <
>                                                          <
>>>>>>>>>>>>>>>>>>>>>>>>>>>> KEY <<<<<<<<<<<<<<<<<<<<<<<<<<<





USA.gov is the U.S. government's official web portal to all federal, state and local government web resources and services.